[[{"header":{"parameterUnit":"m.s-1","parameterCategory":1,"la1":30.2991,"la2":30.254,"lo1":-89.0895,"lo2":-89.0444,"dy":0.0017,"dx":0.0017,"nx":28,"ny":28,"refTime":"2025-07-27T09:00:00:Z","depth":0,"parameterNumber":2,"parameterNumberName":"U-component_of_WINDS"},"data":[0,0,0,0,0,0,0,0,0,0,0,0,0,0,0,0,0,0,0,0,0,0,0,0,0,0,0,0,0,0,0,0,0,0,0,0,0,0,0,0,0,0,0,0,0,0,0,0,0,0,0,0,0,0,0,0,0,0,0.125,0.125,0,0.121,0.1209,0.1209,0.1183,0.1183,0.1183,0.1183,0.114,0.1139,0.1138,0,0,0,0,0,0,0,0,0,0,0,0,0,0.1305,0.1304,0.1251,0.125,0.125,0.121,0.1209,0.1209,0.1183,0.1183,0.1183,0.1183,0.114,0.1139,0.1138,0,0,0,0,0,0,0,0,0,0,0,0,0,0.1274,0.1304,0.1251,0.1232,0.123,0.121,0.1209,0.1208,0.1183,0.1183,0.1183,0.1182,0.1141,0.1139,0.1138,0.1133,0,0,0.1133,0.1133,0,0,0,0,0,0,0,0,0.1276,0.1272,0.1235,0.1233,0.1231,0.1201,0.1213,0.1183,0.1183,0.1201,0.1183,0.1182,0.1161,0.1157,0.115,0.1131,0.1129,0.1133,0.1132,0.1132,0.1131,0,0,0,0,0,0,0,0.1278,0.1274,0.1234,0.1235,0.1232,0.1225,0.1221,0.1207,0.1182,0.1199,0.1197,0.1193,0.1159,0.1152,0.1149,0.1129,0.1133,0.1132,0.1131,0.113,0.1101,0.1102,0,0,0,0,0,0,0.1283,0.1276,0.1236,0.1233,0.1253,0.1224,0.1219,0.1211,0.1183,0.1178,0.1193,0.1192,0.1154,0.1151,0.1148,0.1139,0.1132,0.113,0.1129,0.1101,0.1102,0.1102,0,0,0,0,0,0,0.1285,0.128,0.1237,0.1254,0.1248,0.1224,0.1215,0.121,0.1203,0.1178,0.1173,0.119,0.1154,0.115,0.1136,0.1137,0.113,0.1128,0.1101,0.1101,0.1102,0.1122,0,0,0,0,0,0,0.1286,0.1281,0.1279,0.1254,0.1247,0.1228,0.1215,0.121,0.12,0.1198,0.1174,0.1169,0.1154,0.1139,0.1135,0.1135,0.1127,0.1101,0.1101,0.1102,0.1121,0.1123,0.1124,0,0,0,0,0,0.1288,0.1287,0.1279,0.1274,0.1245,0.1228,0.1224,0.1206,0.12,0.1198,0.1182,0.117,0.1138,0.1138,0.1133,0.1132,0.1101,0.1101,0.1102,0.112,0.1122,0.1124,0,0,0,0,0,0,0.1312,0.1283,0.1274,0.1265,0.1249,0.1223,0.122,0.1209,0.1194,0.1193,0.1171,0.1165,0.1154,0.1142,0.1143,0.1125,0.1118,0.1117,0.1134,0.1135,0.1137,0.114,0.1126,0,0,0,0,0,0.1317,0.1306,0.128,0.1274,0.1267,0.1245,0.1237,0.1224,0.1207,0.12,0.1183,0.1166,0.1152,0.1143,0.1129,0.1119,0.1113,0.1116,0.1118,0.1119,0.1119,0.1112,0.1112,0.1103,0.1103,0.1103,0,0,0.1325,0.1308,0.1302,0.1278,0.1265,0.1253,0.1239,0.1228,0.1219,0.1198,0.1184,0.1171,0.1151,0.1139,0.1133,0.1129,0.112,0.112,0.1121,0.112,0.1112,0.1113,0.1114,0.1103,0.1103,0.1103,0,0,0.1334,0.1321,0.1313,0.1299,0.1279,0.1264,0.1262,0.1238,0.1229,0.1215,0.1198,0.1187,0.1163,0.1149,0.1139,0.1142,0.113,0.1137,0.1145,0.1139,0.1139,0.114,0.114,0.114,0.1137,0.1137,0.1137,0,0.1347,0.133,0.1311,0.13,0.129,0.127,0.1262,0.1249,0.1225,0.1218,0.1213,0.1182,0.1168,0.1152,0.1152,0.1145,0.1141,0.114,0.1141,0.1141,0.1141,0.1141,0.1141,0.1138,0.1138,0.1138,0.1138,0,0.1346,0.1334,0.133,0.1307,0.1296,0.1287,0.1266,0.1257,0.1245,0.1231,0.1216,0.1197,0.1178,0.1174,0.1162,0.1155,0.1153,0.1145,0.1137,0.1144,0.1143,0.1143,0.114,0.1139,0.1139,0.1139,0,0,0.137,0.1335,0.1334,0.1323,0.1298,0.1288,0.1277,0.1259,0.1251,0.1235,0.1224,0.1204,0.1196,0.1184,0.1171,0.1165,0.1167,0.1157,0.1156,0.1159,0.1157,0.1163,0.1163,0.1159,0.1159,0.1159,0.1158,0,0.1375,0.1355,0.1337,0.1323,0.1311,0.1291,0.1282,0.1265,0.1251,0.1238,0.1223,0.1208,0.1199,0.1192,0.1185,0.1168,0.1166,0.1168,0.1148,0.1148,0.1153,0.1163,0.1169,0.117,0.1158,0.1158,0.1158,0,0.1378,0.1362,0.1347,0.1322,0.1316,0.1308,0.1289,0.1277,0.1257,0.1247,0.1234,0.122,0.1206,0.12,0.118,0.1182,0.1173,0.1163,0.1163,0.116,0.1153,0.1159,0.117,0.117,0.1157,0.1157,0.1158,0,0.1395,0.137,0.1357,0.1348,0.1319,0.1314,0.1301,0.1282,0.1271,0.1254,0.1247,0.1229,0.1219,0.1204,0.1185,0.1182,0.1167,0.116,0.1158,0.1159,0.1156,0.1156,0.1164,0.1151,0.1151,0.1151,0.1151,0,0.1402,0.1393,0.1364,0.1357,0.1346,0.1325,0.1315,0.1301,0.1283,0.1272,0.1254,0.1243,0.1219,0.1205,0.119,0.1176,0.1172,0.1163,0.1159,0.1164,0.1165,0.1157,0.1156,0.1151,0.1151,0.1151,0.1151,0,0.1419,0.14,0.1385,0.1358,0.1352,0.1345,0.1322,0.1313,0.1298,0.1283,0.1279,0.1255,0.1237,0.1217,0.1193,0.1183,0.117,0.1164,0.1176,0.1174,0.1173,0.1173,0.1176,0.1175,0.1164,0.1164,0.1164,0,0.1425,0.1417,0.139,0.1381,0.1369,0.1355,0.1344,0.1323,0.1313,0.1289,0.1283,0.1264,0.1248,0.1222,0.1201,0.1183,0.1176,0.1178,0.1173,0.1178,0.1175,0.1176,0.1174,0.118,0.118,0.118,0.118,0,0.1436,0.1426,0.1411,0.1393,0.138,0.1365,0.1348,0.1342,0.1317,0.1306,0.1288,0.1276,0.1251,0.1232,0.1211,0.1198,0.1184,0.1182,0.1181,0.1186,0.1193,0.1188,0.1179,0.1182,0.1182,0.1182,0.1182,0.1182,0.1446,0.1439,0.1418,0.1402,0.1387,0.1372,0.1362,0.1345,0.133,0.1309,0.1297,0.1279,0.1259,0.1229,0.1215,0.1201,0.1196,0.1194,0.1194,0.1193,0.1194,0.1196,0.1197,0.1197,0.1197,0.1197,0.1196,0,0.1456,0.1441,0.1427,0.1404,0.1391,0.138,0.1361,0.1351,0.1335,0.1317,0.1302,0.1281,0.1262,0.1241,0.1221,0.1213,0.1206,0.1208,0.1208,0.1205,0.12,0.1203,0.1214,0.1214,0.1214,0.1214,0.1214,0.1214,0.1459,0.1445,0.1433,0.1411,0.1397,0.1379,0.1369,0.1355,0.134,0.1317,0.1302,0.1288,0.1268,0.1247,0.1229,0.1223,0.1216,0.122,0.1212,0.1207,0.1206,0.1204,0.1207,0.1219,0.1219,0.1218,0.1218,0.1218]},{"header":{"parameterUnit":"m.s-1","parameterCategory":1,"la1":30.2991,"la2":30.254,"lo1":-89.0895,"lo2":-89.0444,"dy":0.0017,"dx":0.0017,"nx":28,"ny":28,"refTime":"2025-07-27T09:00:00:Z","depth":0,"parameterNumber":3,"parameterNumberName":"V-component_of_WINDS"},"data":[0,0,0,0,0,0,0,0,0,0,0,0,0,0,0,0,0,0,0,0,0,0,0,0,0,0,0,0,0,0,0,0,0,0,0,0,0,0,0,0,0,0,0,0,0,0,0,0,0,0,0,0,0,0,0,0,0,0,2.9946,2.9946,0,2.9974,2.9975,2.9975,2.9907,2.9905,2.9903,2.9901,2.9928,2.9931,2.9933,0,0,0,0,0,0,0,0,0,0,0,0,0,2.9831,2.9833,2.9946,2.9946,2.9947,2.9974,2.9975,2.9975,2.9908,2.9905,2.9903,2.99,2.9927,2.993,2.9934,0,0,0,0,0,0,0,0,0,0,0,0,0,2.9872,2.9834,2.9946,2.9917,2.9914,2.9974,2.9975,2.9975,2.9908,2.9905,2.9902,2.9899,2.9926,2.993,2.9934,3.0023,0,0,2.9946,2.9948,0,0,0,0,0,0,0,0,2.987,2.9876,2.9921,2.9919,2.9916,2.9934,2.9944,2.9991,2.9909,2.9911,2.9901,2.9897,2.9932,2.9936,2.9948,3.0024,3.0025,2.9947,2.9949,2.9951,2.9952,0,0,0,0,0,0,0,2.9867,2.9875,2.9957,2.9921,2.9919,2.9901,2.9903,2.9952,2.9939,2.991,2.9905,2.991,2.9931,2.9944,2.9948,3.0026,2.9947,2.995,2.9953,2.9954,3.0174,3.0178,0,0,0,0,0,0,2.9868,2.9873,2.9956,2.9958,2.9885,2.9906,2.9908,2.9932,2.9938,2.9936,2.9912,2.9907,2.9939,2.9944,2.9949,3.0052,2.9951,2.9955,2.9957,3.0171,3.0175,3.0179,0,0,0,0,0,0,2.9866,2.9876,2.9955,2.9914,2.9923,2.9911,2.9938,2.9934,2.9947,2.994,2.9937,2.9929,2.9937,2.9943,3.0005,3.0052,2.9956,2.996,3.0167,3.0172,3.0177,3.026,0,0,0,0,0,0,2.9863,2.9876,2.991,2.9915,2.9925,3.0012,2.9941,2.9937,2.9955,2.9947,2.9955,2.9953,2.9935,2.9999,3.0009,3.0056,2.9963,3.0163,3.0169,3.0175,3.0253,3.0267,3.028,0,0,0,0,0,2.9859,2.9933,2.9913,2.9923,2.9968,3.0015,3.002,2.9998,2.9959,2.9993,2.9988,2.9953,3.0046,3.0006,3.0016,3.0065,3.016,3.0168,3.0175,3.0247,3.0264,3.0279,0,0,0,0,0,0,2.9933,2.9933,2.991,2.9988,3.0002,3.0003,3.0045,3.0018,3.0042,3.0034,3.0005,3.0007,3.0074,3.0076,3.0032,3.0151,3.0096,3.0106,3.0147,3.0163,3.0177,3.0174,2.9967,0,0,0,0,0,2.9958,2.9997,2.9994,3.0063,3.0071,3.0057,3.0077,3.0058,3.0071,3.0076,3.0076,3.0089,3.0121,3.0143,3.0172,3.0253,3.0253,3.0292,3.0305,3.0316,3.0325,3.0366,3.0383,3.0204,3.0204,3.0204,0,0,3.0011,3.0015,3.0041,3.0078,3.0086,3.0125,3.0062,3.0107,3.0135,3.0083,3.0141,3.0141,3.0154,3.0225,3.0257,3.0229,3.0374,3.0326,3.0335,3.0337,3.0376,3.0393,3.0408,3.0209,3.0208,3.0208,0,0,3.0126,3.0135,3.0192,3.0202,3.0216,3.0206,3.022,3.0225,3.0223,3.0281,3.0242,3.0275,3.0332,3.0341,3.0354,3.0473,3.0441,3.0483,3.0552,3.0593,3.0607,3.0619,3.0659,3.0675,3.0492,3.0492,3.0492,0,3.0189,3.0248,3.0224,3.0271,3.0287,3.0243,3.0299,3.031,3.0333,3.0344,3.0313,3.0382,3.0387,3.046,3.0489,3.0501,3.0514,3.0481,3.0607,3.0619,3.063,3.0668,3.0684,3.0497,3.0497,3.0496,3.0496,0,3.0324,3.0365,3.0409,3.0432,3.0454,3.0506,3.0489,3.0513,3.0493,3.0486,3.0545,3.055,3.0579,3.0595,3.0576,3.0664,3.0646,3.0612,3.0555,3.0652,3.0688,3.0702,3.0504,3.0502,3.0501,3.05,0,0,3.0485,3.0495,3.0511,3.0521,3.0533,3.0563,3.0613,3.0641,3.0662,3.0679,3.0718,3.0766,3.0734,3.0748,3.073,3.0766,3.0858,3.0727,3.0726,3.0749,3.0953,3.0978,3.0995,3.0837,3.084,3.0842,3.0951,0,3.0598,3.0682,3.0663,3.0746,3.0782,3.074,3.0783,3.0794,3.0789,3.0819,3.0813,3.0847,3.0803,3.0811,3.0845,3.0839,3.0898,3.0831,3.0872,3.0873,3.0868,3.1014,3.104,3.1143,3.0965,3.0968,3.0969,0,3.074,3.0763,3.085,3.0855,3.0869,3.0908,3.0932,3.0961,3.0973,3.0966,3.0982,3.0957,3.1004,3.0949,3.1012,3.0968,3.0983,3.0983,3.0986,3.0988,3.0926,3.1017,3.1176,3.1191,3.0991,3.0989,3.0988,0,3.0846,3.0899,3.0957,3.0967,3.0975,3.1003,3.1007,3.1016,3.1034,3.1054,3.1065,3.1092,3.1105,3.1125,3.1107,3.1069,3.1173,3.1117,3.1167,3.1168,3.119,3.1188,3.1351,3.1203,3.1203,3.1203,3.1202,0,3.0973,3.1027,3.1005,3.1041,3.11,3.1077,3.1136,3.1135,3.1143,3.1177,3.1143,3.1175,3.115,3.118,3.1166,3.1219,3.1226,3.1221,3.1217,3.1223,3.1224,3.1232,3.1223,3.1207,3.1206,3.1205,3.1204,0,3.1101,3.1089,3.1149,3.1152,3.1154,3.1197,3.1199,3.1231,3.1224,3.1267,3.1276,3.1264,3.1298,3.1282,3.1317,3.1307,3.1376,3.1363,3.1372,3.1368,3.1419,3.1414,3.1591,3.1612,3.1452,3.1454,3.1455,0,3.1182,3.1223,3.123,3.125,3.1257,3.1291,3.1309,3.1287,3.1307,3.1323,3.1353,3.1384,3.1407,3.1462,3.1456,3.1482,3.1468,3.1528,3.1471,3.1477,3.1466,3.1463,3.1467,3.1539,3.1541,3.1542,3.1544,0,3.1325,3.1317,3.1345,3.1371,3.1394,3.1413,3.1429,3.1447,3.1426,3.145,3.1484,3.1502,3.1538,3.1568,3.1591,3.1594,3.1565,3.1562,3.1574,3.1581,3.1584,3.1581,3.1401,3.1557,3.1556,3.1555,3.1554,3.1554,3.1431,3.1464,3.1474,3.1506,3.1516,3.1532,3.1562,3.1559,3.1587,3.1614,3.16,3.1639,3.1648,3.1676,3.1683,3.1712,3.1688,3.1707,3.1712,3.1716,3.1722,3.1581,3.1717,3.1716,3.1716,3.1716,3.1715,0,3.1571,3.1575,3.1605,3.1628,3.1653,3.1625,3.1641,3.1663,3.1698,3.171,3.1733,3.1772,3.1801,3.1797,3.1823,3.1848,3.1835,3.1855,3.1852,3.1853,3.1743,3.1729,3.1865,3.1865,3.1865,3.1865,3.1865,3.1865,3.1646,3.1701,3.1694,3.1753,3.1757,3.1795,3.1807,3.1821,3.1829,3.1874,3.1898,3.1896,3.1901,3.1927,3.1952,3.195,3.196,3.1985,3.1978,3.1876,3.1861,3.1847,3.1833,3.1988,3.1988,3.2085,3.2086,3.2087]}]]